• In Belarus
  • List of Countries
  • For 7 days
  • Water Temperature
  • Satellite Maps
  • Weather Map
  • Weather Widgets
  • user-avatar
    Login

    Hourly Weather Herāt

    Today, 19 July, Friday

    Time Temperature Precipitation Wind Pressure Humidity
    00:00 +32°C° 0 mm 7 mps 674 mmHg 12%
    01:00 +30°C° 0 mm 7 mps 674 mmHg 13%
    02:00 +29°C° 0 mm 6 mps 674 mmHg 14%
    03:00 +28°C° 0 mm 5 mps 674 mmHg 14%
    04:00 +28°C° 0 mm 4 mps 674 mmHg 15%
    05:00 +30°C° 0 mm 5 mps 674 mmHg 14%
    06:00 +33°C° 0 mm 6 mps 675 mmHg 12%
    07:00 +35°C° 0 mm 7 mps 676 mmHg 11%
    08:00 +38°C° 0 mm 9 mps 676 mmHg 9%
    09:00 +40°C° 0 mm 10 mps 676 mmHg 8%
    10:00 +43°C° 0 mm 12 mps 676 mmHg 6%
    11:00 +44°C° 0 mm 12 mps 676 mmHg 6%
    12:00 +46°C° 0 mm 13 mps 676 mmHg 6%
    13:00 +47°C° 0 mm 13 mps 676 mmHg 5%
    14:00 +46°C° 0 mm 13 mps 676 mmHg 5%
    15:00 +46°C° 0 mm 13 mps 675 mmHg 5%
    16:00 +46°C° 0 mm 13 mps 675 mmHg 5%
    17:00 +43°C° 0 mm 12 mps 675 mmHg 6%
    18:00 +42°C° 0 mm 11 mps 675 mmHg 7%
    19:00 +39°C° 0 mm 10 mps 675 mmHg 8%
    20:00 +38°C° 0 mm 9 mps 675 mmHg 8%
    21:00 +35°C° 0 mm 8 mps 675 mmHg 9%
    22:00 +34°C° 0 mm 7 mps 675 mmHg 10%
    23:00 +33°C° 0 mm 7 mps 675 mmHg 10%

    Tomorrow, 20 July, Saturday

    Time Temperature Precipitation Wind Pressure Humidity
    00:00 +32°C° 0 mm 6 mps 675 mmHg 10%
    01:00 +30°C° 0 mm 5 mps 675 mmHg 11%
    02:00 +30°C° 0 mm 5 mps 675 mmHg 12%
    03:00 +29°C° 0 mm 4 mps 675 mmHg 12%
    04:00 +28°C° 0 mm 4 mps 675 mmHg 13%
    05:00 +30°C° 0 mm 5 mps 676 mmHg 11%
    06:00 +33°C° 0 mm 7 mps 676 mmHg 10%
    07:00 +35°C° 0 mm 8 mps 677 mmHg 9%
    08:00 +38°C° 0 mm 10 mps 677 mmHg 8%
    09:00 +41°C° 0 mm 11 mps 678 mmHg 7%
    10:00 +43°C° 0 mm 13 mps 678 mmHg 7%
    11:00 +45°C° 0 mm 13 mps 678 mmHg 7%
    12:00 +46°C° 0 mm 13 mps 678 mmHg 6%
    13:00 +46°C° 0 mm 13 mps 678 mmHg 6%
    14:00 +46°C° 0 mm 13 mps 677 mmHg 6%
    15:00 +46°C° 0 mm 14 mps 677 mmHg 6%
    16:00 +46°C° 0 mm 14 mps 676 mmHg 6%
    17:00 +45°C° 0 mm 13 mps 676 mmHg 6%
    18:00 +42°C° 0 mm 12 mps 676 mmHg 6%
    19:00 +41°C° 0 mm 11 mps 676 mmHg 7%
    20:00 +39°C° 0 mm 11 mps 677 mmHg 8%
    21:00 +38°C° 0 mm 12 mps 677 mmHg 9%
    22:00 +37°C° 0 mm 12 mps 677 mmHg 10%
    23:00 +36°C° 0 mm 11 mps 677 mmHg 11%

    Day after tomorrow, 21 July, Sunday

    Time Temperature Precipitation Wind Pressure Humidity
    00:00 +34°C° 0 mm 10 mps 677 mmHg 13%
    01:00 +33°C° 0 mm 9 mps 677 mmHg 14%
    02:00 +33°C° 0 mm 9 mps 677 mmHg 15%
    03:00 +32°C° 0 mm 8 mps 677 mmHg 15%
    04:00 +32°C° 0 mm 8 mps 677 mmHg 15%
    05:00 +33°C° 0 mm 8 mps 678 mmHg 15%
    06:00 +34°C° 0 mm 8 mps 678 mmHg 14%
    07:00 +35°C° 0 mm 8 mps 678 mmHg 13%
    08:00 +38°C° 0 mm 10 mps 679 mmHg 12%
    09:00 +41°C° 0 mm 12 mps 679 mmHg 11%
    10:00 +42°C° 0 mm 15 mps 679 mmHg 10%
    11:00 +43°C° 0 mm 15 mps 679 mmHg 10%
    12:00 +45°C° 0 mm 15 mps 679 mmHg 10%
    13:00 +45°C° 0 mm 15 mps 679 mmHg 9%
    14:00 +46°C° 0 mm 15 mps 678 mmHg 9%
    15:00 +46°C° 0 mm 16 mps 678 mmHg 9%
    16:00 +46°C° 0 mm 16 mps 677 mmHg 9%
    17:00 +45°C° 0 mm 15 mps 677 mmHg 10%
    18:00 +42°C° 0 mm 13 mps 677 mmHg 11%
    19:00 +41°C° 0 mm 11 mps 677 mmHg 12%
    20:00 +38°C° 0 mm 11 mps 677 mmHg 15%
    21:00 +37°C° 0 mm 11 mps 677 mmHg 18%
    22:00 +34°C° 0 mm 11 mps 678 mmHg 22%
    23:00 +33°C° 0 mm 10 mps 677 mmHg 25%

    22 July, Monday

    Time Temperature Precipitation Wind Pressure Humidity
    00:00 +32°C° 0 mm 10 mps 677 mmHg 29%
    01:00 +31°C° 0 mm 9 mps 676 mmHg 33%
    02:00 +29°C° 0 mm 8 mps 676 mmHg 35%
    03:00 +28°C° 0 mm 7 mps 676 mmHg 36%
    04:00 +26°C° 0 mm 6 mps 676 mmHg 38%
    05:00 +28°C° 0 mm 6 mps 676 mmHg 34%
    06:00 +29°C° 0 mm 7 mps 677 mmHg 31%
    07:00 +32°C° 0 mm 7 mps 678 mmHg 28%
    08:00 +34°C° 0 mm 9 mps 678 mmHg 25%
    09:00 +37°C° 0 mm 11 mps 678 mmHg 21%
    10:00 +39°C° 0 mm 13 mps 678 mmHg 18%
    11:00 +41°C° 0 mm 13 mps 678 mmHg 17%
    12:00 +42°C° 0 mm 13 mps 678 mmHg 16%
    13:00 +42°C° 0 mm 14 mps 677 mmHg 15%
    14:00 +42°C° 0 mm 14 mps 677 mmHg 15%
    15:00 +42°C° 0 mm 14 mps 677 mmHg 14%
    16:00 +42°C° 0 mm 14 mps 676 mmHg 14%
    17:00 +39°C° 0 mm 13 mps 676 mmHg 14%
    18:00 +38°C° 0 mm 13 mps 676 mmHg 14%
    19:00 +36°C° 0 mm 13 mps 676 mmHg 14%
    20:00 +36°C° 0 mm 12 mps 676 mmHg 13%
    21:00 +34°C° 0 mm 12 mps 676 mmHg 13%
    22:00 +33°C° 0 mm 12 mps 676 mmHg 12%
    23:00 +31°C° 0 mm 10 mps 676 mmHg 13%

    23 July, Tuesday

    Time Temperature Precipitation Wind Pressure Humidity
    00:00 +29°C° 0 mm 8 mps 675 mmHg 14%
    01:00 +28°C° 0 mm 6 mps 675 mmHg 15%
    02:00 +27°C° 0 mm 6 mps 674 mmHg 17%
    03:00 +26°C° 0 mm 5 mps 674 mmHg 18%
    04:00 +25°C° 0 mm 4 mps 674 mmHg 19%
    05:00 +27°C° 0 mm 6 mps 674 mmHg 17%
    06:00 +29°C° 0 mm 7 mps 675 mmHg 16%
    07:00 +31°C° 0 mm 8 mps 676 mmHg 14%
    08:00 +34°C° 0 mm 10 mps 676 mmHg 12%
    09:00 +37°C° 0 mm 11 mps 676 mmHg 10%
    10:00 +39°C° 0 mm 13 mps 676 mmHg 8%
    11:00 +41°C° 0 mm 13 mps 676 mmHg 8%
    12:00 +41°C° 0 mm 14 mps 676 mmHg 7%
    13:00 +42°C° 0 mm 15 mps 675 mmHg 7%
    14:00 +42°C° 0 mm 15 mps 675 mmHg 7%
    15:00 +42°C° 0 mm 16 mps 675 mmHg 6%
    16:00 +42°C° 0 mm 16 mps 674 mmHg 6%
    17:00 +40°C° 0 mm 15 mps 674 mmHg 7%
    18:00 +38°C° 0 mm 14 mps 674 mmHg 8%
    19:00 +36°C° 0 mm 13 mps 674 mmHg 10%
    20:00 +34°C° 0 mm 13 mps 675 mmHg 11%
    21:00 +33°C° 0 mm 12 mps 675 mmHg 12%
    22:00 +32°C° 0 mm 12 mps 675 mmHg 14%
    23:00 +31°C° 0 mm 11 mps 674 mmHg 15%

    24 July, Wednesday

    Time Temperature Precipitation Wind Pressure Humidity
    00:00 +29°C° 0 mm 9 mps 674 mmHg 16%
    01:00 +28°C° 0 mm 8 mps 674 mmHg 17%
    02:00 +27°C° 0 mm 7 mps 674 mmHg 18%
    03:00 +26°C° 0 mm 6 mps 673 mmHg 19%
    04:00 +25°C° 0 mm 5 mps 673 mmHg 20%
    05:00 +28°C° 0 mm 6 mps 674 mmHg 18%
    06:00 +30°C° 0 mm 7 mps 675 mmHg 16%
    07:00 +33°C° 0 mm 9 mps 675 mmHg 14%
    08:00 +34°C° 0 mm 11 mps 676 mmHg 13%
    09:00 +37°C° 0 mm 13 mps 676 mmHg 12%
    10:00 +40°C° 0 mm 15 mps 676 mmHg 11%
    11:00 +41°C° 0 mm 15 mps 676 mmHg 10%
    12:00 +42°C° 0 mm 16 mps 675 mmHg 10%
    13:00 +44°C° 0 mm 16 mps 675 mmHg 10%
    14:00 +42°C° 0 mm 16 mps 675 mmHg 10%
    15:00 +42°C° 0 mm 16 mps 675 mmHg 11%
    16:00 +42°C° 0 mm 16 mps 674 mmHg 11%
    17:00 +40°C° 0 mm 16 mps 674 mmHg 13%
    18:00 +38°C° 0 mm 15 mps 674 mmHg 15%
    19:00 +36°C° 0 mm 14 mps 674 mmHg 17%
    20:00 +34°C° 0 mm 14 mps 674 mmHg 18%
    21:00 +33°C° 0 mm 14 mps 675 mmHg 18%
    22:00 +32°C° 0 mm 13 mps 675 mmHg 18%
    23:00 +31°C° 0 mm 11 mps 674 mmHg 19%
    Show more